Time,TemperatureF,DewpointF,PressureIn,WindDirection,WindDirectionDegrees,WindSpeedMPH,WindSpeedGustMPH,Humidity,HourlyPrecipIn,Conditions,Clouds,dailyrainin,SoftwareType,DateUTC
2013-01-03 00:00:00,34.0,32.0,-100.00,East,86,4.0,-999.0,89,0.00,,,-99.99,,2013-01-03 08:00:00,
2013-01-03 00:23:00,34.0,32.0,-100.00,East,86,4.0,-999.0,89,0.00,,,-99.99,,2013-01-03 08:23:00,
2013-01-03 00:33:00,34.0,32.0,-100.00,East,86,4.0,-999.0,89,0.00,,,-99.99,,2013-01-03 08:33:00,
2013-01-03 00:43:00,34.0,32.0,-100.00,East,86,4.0,-999.0,89,0.00,,,-99.99,,2013-01-03 08:43:00,
2013-01-03 00:53:00,34.0,32.0,-100.00,East,86,4.0,-999.0,89,0.00,,,-99.99,,2013-01-03 08:53:00,
2013-01-03 01:00:00,34.0,31.0,-100.00,ENE,78,1.0,-999.0,88,0.00,,,-99.99,,2013-01-03 09:00:00,
2013-01-03 01:22:00,34.0,31.0,-100.00,ENE,78,1.0,-999.0,88,0.00,,,-99.99,,2013-01-03 09:22:00,
2013-01-03 01:34:00,34.0,31.0,-100.00,ENE,78,1.0,-999.0,88,0.00,,,-99.99,,2013-01-03 09:34:00,
2013-01-03 01:43:00,34.0,31.0,-100.00,ENE,78,1.0,-999.0,88,0.00,,,-99.99,,2013-01-03 09:43:00,
2013-01-03 01:53:00,34.0,31.0,-100.00,ENE,78,1.0,-999.0,88,0.00,,,-99.99,,2013-01-03 09:53:00,
2013-01-03 02:00:00,32.0,29.0,-100.00,ESE,111,3.0,-999.0,90,0.00,,,-99.99,,2013-01-03 10:00:00,
2013-01-03 02:23:00,32.0,29.0,-100.00,ESE,111,3.0,-999.0,90,0.00,,,-99.99,,2013-01-03 10:23:00,
2013-01-03 02:33:00,32.0,29.0,-100.00,ESE,111,3.0,-999.0,90,0.00,,,-99.99,,2013-01-03 10:33:00,
2013-01-03 02:43:00,32.0,29.0,-100.00,ESE,111,3.0,-999.0,90,0.00,,,-99.99,,2013-01-03 10:43:00,
2013-01-03 02:52:00,32.0,29.0,-100.00,ESE,111,3.0,-999.0,90,0.00,,,-99.99,,2013-01-03 10:52:00,
2013-01-03 03:00:00,32.0,29.0,-100.00,SSW,196,1.0,-999.0,88,0.00,,,-99.99,,2013-01-03 11:00:00,
2013-01-03 03:23:00,32.0,29.0,-100.00,SSW,196,1.0,-999.0,88,0.00,,,-99.99,,2013-01-03 11:23:00,
2013-01-03 03:33:00,32.0,29.0,-100.00,SSW,196,1.0,-999.0,88,0.00,,,-99.99,,2013-01-03 11:33:00,
2013-01-03 03:43:00,32.0,29.0,-100.00,SSW,196,1.0,-999.0,88,0.00,,,-99.99,,2013-01-03 11:43:00,
2013-01-03 03:53:00,32.0,29.0,-100.00,SSW,196,1.0,-999.0,88,0.00,,,-99.99,,2013-01-03 11:53:00,
2013-01-03 04:00:00,31.0,29.0,-100.00,East,94,3.0,-999.0,92,0.00,,,-99.99,,2013-01-03 12:00:00,
2013-01-03 04:22:00,31.0,29.0,-100.00,East,94,3.0,-999.0,92,0.00,,,-99.99,,2013-01-03 12:22:00,
2013-01-03 04:33:00,31.0,29.0,-100.00,East,94,3.0,-999.0,92,0.00,,,-99.99,,2013-01-03 12:33:00,
2013-01-03 04:43:00,31.0,29.0,-100.00,East,94,3.0,-999.0,92,0.00,,,-99.99,,2013-01-03 12:43:00,
2013-01-03 04:53:00,31.0,29.0,-100.00,East,94,3.0,-999.0,92,0.00,,,-99.99,,2013-01-03 12:53:00,
2013-01-03 05:00:00,30.0,28.0,-100.00,East,98,4.0,-999.0,91,0.00,,,-99.99,,2013-01-03 13:00:00,
2013-01-03 05:22:00,30.0,28.0,-100.00,East,98,4.0,-999.0,91,0.00,,,-99.99,,2013-01-03 13:22:00,
2013-01-03 05:33:00,30.0,28.0,-100.00,East,98,4.0,-999.0,91,0.00,,,-99.99,,2013-01-03 13:33:00,
2013-01-03 05:42:00,30.0,28.0,-100.00,East,98,4.0,-999.0,91,0.00,,,-99.99,,2013-01-03 13:42:00,
2013-01-03 05:53:00,30.0,28.0,-100.00,East,98,4.0,-999.0,91,0.00,,,-99.99,,2013-01-03 13:53:00,
2013-01-03 06:00:00,31.0,29.0,-100.00,SE,142,3.0,-999.0,91,0.00,,,-99.99,,2013-01-03 14:00:00,
2013-01-03 06:23:00,31.0,29.0,-100.00,SE,142,3.0,-999.0,91,0.00,,,-99.99,,2013-01-03 14:23:00,
2013-01-03 06:33:00,31.0,29.0,-100.00,SE,142,3.0,-999.0,91,0.00,,,-99.99,,2013-01-03 14:33:00,
2013-01-03 06:43:00,31.0,29.0,-100.00,SE,142,3.0,-999.0,91,0.00,,,-99.99,,2013-01-03 14:43:00,
2013-01-03 06:53:00,31.0,29.0,-100.00,SE,142,3.0,-999.0,91,0.00,,,-99.99,,2013-01-03 14:53:00,
2013-01-03 07:00:00,31.0,28.0,-100.00,ESE,113,4.0,-999.0,90,0.00,,,-99.99,,2013-01-03 15:00:00,
2013-01-03 07:23:00,31.0,28.0,-100.00,ESE,113,4.0,-999.0,90,0.00,,,-99.99,,2013-01-03 15:23:00,
2013-01-03 07:34:00,31.0,28.0,-100.00,ESE,113,4.0,-999.0,90,0.00,,,-99.99,,2013-01-03 15:34:00,
2013-01-03 07:43:00,31.0,28.0,-100.00,ESE,113,4.0,-999.0,90,0.00,,,-99.99,,2013-01-03 15:43:00,
2013-01-03 07:53:00,31.0,28.0,-100.00,ESE,113,4.0,-999.0,90,0.00,,,-99.99,,2013-01-03 15:53:00,
2013-01-03 08:00:00,31.0,28.0,-100.00,NE,52,1.0,-999.0,91,0.00,,,-99.99,,2013-01-03 16:00:00,
2013-01-03 08:23:00,31.0,28.0,-100.00,NE,52,1.0,-999.0,91,0.00,,,-99.99,,2013-01-03 16:23:00,
2013-01-03 08:34:00,31.0,28.0,-100.00,NE,52,1.0,-999.0,91,0.00,,,-99.99,,2013-01-03 16:34:00,
2013-01-03 08:43:00,31.0,28.0,-100.00,NE,52,1.0,-999.0,91,0.00,,,-99.99,,2013-01-03 16:43:00,
2013-01-03 08:53:00,31.0,28.0,-100.00,NE,52,1.0,-999.0,91,0.00,,,-99.99,,2013-01-03 16:53:00,
2013-01-03 09:00:00,36.0,32.0,-100.00,South,190,1.0,-999.0,86,0.00,,,-99.99,,2013-01-03 17:00:00,
2013-01-03 09:23:00,36.0,32.0,-100.00,South,190,1.0,-999.0,86,0.00,,,-99.99,,2013-01-03 17:23:00,
2013-01-03 09:33:00,36.0,32.0,-100.00,South,190,1.0,-999.0,86,0.00,,,-99.99,,2013-01-03 17:33:00,
2013-01-03 09:43:00,36.0,32.0,-100.00,South,190,1.0,-999.0,86,0.00,,,-99.99,,2013-01-03 17:43:00,
2013-01-03 09:53:00,36.0,32.0,-100.00,South,190,1.0,-999.0,86,0.00,,,-99.99,,2013-01-03 17:53:00,
2013-01-03 10:00:00,45.0,37.0,-100.00,SE,139,1.0,-999.0,73,0.00,,,-99.99,,2013-01-03 18:00:00,
2013-01-03 10:23:00,45.0,37.0,-100.00,SE,139,1.0,-999.0,73,0.00,,,-99.99,,2013-01-03 18:23:00,
2013-01-03 10:33:00,45.0,37.0,-100.00,SE,139,1.0,-999.0,73,0.00,,,-99.99,,2013-01-03 18:33:00,
2013-01-03 10:43:00,45.0,37.0,-100.00,SE,139,1.0,-999.0,73,0.00,,,-99.99,,2013-01-03 18:43:00,
2013-01-03 10:53:00,45.0,37.0,-100.00,SE,139,1.0,-999.0,73,0.00,,,-99.99,,2013-01-03 18:53:00,
2013-01-03 11:00:00,47.0,37.0,-100.00,West,267,2.0,-999.0,67,0.00,,,-99.99,,2013-01-03 19:00:00,
2013-01-03 11:56:00,47.0,37.0,-100.00,West,267,2.0,-999.0,67,0.00,,,-99.99,,2013-01-03 19:56:00,
2013-01-03 12:00:00,49.0,38.0,-100.00,WNW,301,5.0,-999.0,64,0.00,,,-99.99,,2013-01-03 20:00:00,
2013-01-03 12:23:00,49.0,38.0,-100.00,WNW,301,5.0,-999.0,64,0.00,,,-99.99,,2013-01-03 20:23:00,
2013-01-03 12:33:00,49.0,38.0,-100.00,WNW,301,5.0,-999.0,64,0.00,,,-99.99,,2013-01-03 20:33:00,
2013-01-03 12:43:00,49.0,38.0,-100.00,WNW,301,5.0,-999.0,64,0.00,,,-99.99,,2013-01-03 20:43:00,
2013-01-03 12:53:00,49.0,38.0,-100.00,WNW,301,5.0,-999.0,64,0.00,,,-99.99,,2013-01-03 20:53:00,
2013-01-03 13:00:00,52.0,36.0,-100.00,NNW,336,4.0,-999.0,54,0.00,,,-99.99,,2013-01-03 21:00:00,
2013-01-03 13:23:00,52.0,36.0,-100.00,NNW,336,4.0,-999.0,54,0.00,,,-99.99,,2013-01-03 21:23:00,
2013-01-03 13:37:00,52.0,36.0,-100.00,NNW,336,4.0,-999.0,54,0.00,,,-99.99,,2013-01-03 21:37:00,
2013-01-03 13:50:00,52.0,36.0,-100.00,NNW,336,4.0,-999.0,54,0.00,,,-99.99,,2013-01-03 21:50:00,
2013-01-03 14:00:00,54.0,37.0,-100.00,WNW,288,4.0,-999.0,53,0.00,,,-99.99,,2013-01-03 22:00:00,
2013-01-03 14:22:00,54.0,37.0,-100.00,WNW,288,4.0,-999.0,53,0.00,,,-99.99,,2013-01-03 22:22:00,
2013-01-03 14:33:00,54.0,37.0,-100.00,WNW,288,4.0,-999.0,53,0.00,,,-99.99,,2013-01-03 22:33:00,
2013-01-03 14:43:00,54.0,37.0,-100.00,WNW,288,4.0,-999.0,53,0.00,,,-99.99,,2013-01-03 22:43:00,
2013-01-03 14:52:00,54.0,37.0,-100.00,WNW,288,4.0,-999.0,53,0.00,,,-99.99,,2013-01-03 22:52:00,
2013-01-03 15:00:00,56.0,38.0,-100.00,NW,324,4.0,-999.0,50,0.00,,,-99.99,,2013-01-03 23:00:00,
2013-01-03 15:23:00,56.0,38.0,-100.00,NW,324,4.0,-999.0,50,0.00,,,-99.99,,2013-01-03 23:23:00,
2013-01-03 15:33:00,56.0,38.0,-100.00,NW,324,4.0,-999.0,50,0.00,,,-99.99,,2013-01-03 23:33:00,
2013-01-03 15:43:00,56.0,38.0,-100.00,NW,324,4.0,-999.0,50,0.00,,,-99.99,,2013-01-03 23:43:00,
2013-01-03 15:53:00,56.0,38.0,-100.00,NW,324,4.0,-999.0,50,0.00,,,-99.99,,2013-01-03 23:53:00,
2013-01-03 16:00:00,56.0,37.0,-100.00,WNW,295,3.0,-999.0,49,0.00,,,-99.99,,2013-01-04 00:00:00,
2013-01-03 16:23:00,56.0,37.0,-100.00,WNW,295,3.0,-999.0,49,0.00,,,-99.99,,2013-01-04 00:23:00,
2013-01-03 16:33:00,56.0,37.0,-100.00,WNW,295,3.0,-999.0,49,0.00,,,-99.99,,2013-01-04 00:33:00,
2013-01-03 16:42:00,56.0,37.0,-100.00,WNW,295,3.0,-999.0,49,0.00,,,-99.99,,2013-01-04 00:42:00,
2013-01-03 16:52:00,56.0,37.0,-100.00,WNW,295,3.0,-999.0,49,0.00,,,-99.99,,2013-01-04 00:52:00,
2013-01-03 17:00:00,53.0,39.0,-100.00,West,277,5.0,-999.0,58,0.00,,,-99.99,,2013-01-04 01:00:00,
2013-01-03 17:22:00,53.0,39.0,-100.00,West,277,5.0,-999.0,58,0.00,,,-99.99,,2013-01-04 01:22:00,
2013-01-03 17:33:00,53.0,39.0,-100.00,West,277,5.0,-999.0,58,0.00,,,-99.99,,2013-01-04 01:33:00,
2013-01-03 17:42:00,53.0,39.0,-100.00,West,277,5.0,-999.0,58,0.00,,,-99.99,,2013-01-04 01:42:00,
2013-01-03 17:52:00,53.0,39.0,-100.00,West,277,5.0,-999.0,58,0.00,,,-99.99,,2013-01-04 01:52:00,
2013-01-03 18:00:00,46.0,38.0,-100.00,NW,307,2.0,-999.0,74,0.00,,,-99.99,,2013-01-04 02:00:00,
2013-01-03 18:22:00,46.0,38.0,-100.00,NW,307,2.0,-999.0,74,0.00,,,-99.99,,2013-01-04 02:22:00,
2013-01-03 18:33:00,46.0,38.0,-100.00,NW,307,2.0,-999.0,74,0.00,,,-99.99,,2013-01-04 02:33:00,
2013-01-03 18:42:00,46.0,38.0,-100.00,NW,307,2.0,-999.0,74,0.00,,,-99.99,,2013-01-04 02:42:00,
2013-01-03 18:53:00,46.0,38.0,-100.00,NW,307,2.0,-999.0,74,0.00,,,-99.99,,2013-01-04 02:53:00,
2013-01-03 19:00:00,44.0,38.0,-100.00,SE,145,2.0,-999.0,79,0.00,,,-99.99,,2013-01-04 03:00:00,
2013-01-03 19:22:00,44.0,38.0,-100.00,SE,145,2.0,-999.0,79,0.00,,,-99.99,,2013-01-04 03:22:00,
2013-01-03 19:33:00,44.0,38.0,-100.00,SE,145,2.0,-999.0,79,0.00,,,-99.99,,2013-01-04 03:33:00,
2013-01-03 19:43:00,44.0,38.0,-100.00,SE,145,2.0,-999.0,79,0.00,,,-99.99,,2013-01-04 03:43:00,
2013-01-03 19:52:00,44.0,38.0,-100.00,SE,145,2.0,-999.0,79,0.00,,,-99.99,,2013-01-04 03:52:00,
2013-01-03 20:00:00,42.0,38.0,-100.00,ESE,119,3.0,-999.0,84,0.00,,,-99.99,,2013-01-04 04:00:00,
2013-01-03 20:22:00,42.0,38.0,-100.00,ESE,119,3.0,-999.0,84,0.00,,,-99.99,,2013-01-04 04:22:00,
2013-01-03 20:32:00,42.0,38.0,-100.00,ESE,119,3.0,-999.0,84,0.00,,,-99.99,,2013-01-04 04:32:00,
2013-01-03 20:42:00,42.0,38.0,-100.00,ESE,119,3.0,-999.0,84,0.00,,,-99.99,,2013-01-04 04:42:00,
2013-01-03 20:52:00,42.0,38.0,-100.00,ESE,119,3.0,-999.0,84,0.00,,,-99.99,,2013-01-04 04:52:00,
2013-01-03 21:00:00,37.0,34.0,-100.00,SE,125,4.0,-999.0,88,0.00,,,-99.99,,2013-01-04 05:00:00,
2013-01-03 21:22:00,37.0,34.0,-100.00,SE,125,4.0,-999.0,88,0.00,,,-99.99,,2013-01-04 05:22:00,
2013-01-03 21:33:00,37.0,34.0,-100.00,SE,125,4.0,-999.0,88,0.00,,,-99.99,,2013-01-04 05:33:00,
2013-01-03 21:42:00,37.0,34.0,-100.00,SE,125,4.0,-999.0,88,0.00,,,-99.99,,2013-01-04 05:42:00,
2013-01-03 21:52:00,37.0,34.0,-100.00,SE,125,4.0,-999.0,88,0.00,,,-99.99,,2013-01-04 05:52:00,
2013-01-03 22:00:00,36.0,33.0,-100.00,SSE,147,2.0,-999.0,90,0.00,,,-99.99,,2013-01-04 06:00:00,
2013-01-03 22:22:00,36.0,33.0,-100.00,SSE,147,2.0,-999.0,90,0.00,,,-99.99,,2013-01-04 06:22:00,
2013-01-03 22:33:00,36.0,33.0,-100.00,SSE,147,2.0,-999.0,90,0.00,,,-99.99,,2013-01-04 06:33:00,
2013-01-03 22:42:00,36.0,33.0,-100.00,SSE,147,2.0,-999.0,90,0.00,,,-99.99,,2013-01-04 06:42:00,
2013-01-03 22:52:00,36.0,33.0,-100.00,SSE,147,2.0,-999.0,90,0.00,,,-99.99,,2013-01-04 06:52:00,
2013-01-03 23:00:00,36.0,34.0,-100.00,ESE,110,2.0,-999.0,89,0.00,,,-99.99,,2013-01-04 07:00:00,
2013-01-03 23:22:00,36.0,34.0,-100.00,ESE,110,2.0,-999.0,89,0.00,,,-99.99,,2013-01-04 07:22:00,
2013-01-03 23:32:00,36.0,34.0,-100.00,ESE,110,2.0,-999.0,89,0.00,,,-99.99,,2013-01-04 07:32:00,
2013-01-03 23:42:00,36.0,34.0,-100.00,ESE,110,2.0,-999.0,89,0.00,,,-99.99,,2013-01-04 07:42:00,
2013-01-03 23:52:00,36.0,34.0,-100.00,ESE,110,2.0,-999.0,89,0.00,,,-99.99,,2013-01-04 07:52:00,